CZ-6A DEB, 54266

Orbit data source: Space-Track

CZ-6A DEB, 54266 is space debris in SSO originally from a launch on Fri, 11 Nov 2022 UTC launched from the Taiyaun Space Center, China (TSC). Debris objects in space refer to the collection of defunct objects orbiting the Earth. Examples of debris include non-operational satellites, rocket bodies, and fragments generated from explosions, collisions, or faulty payload assembly.

Loading next visibility...
Identifier
54266, 2022-151H
Orbit
SSO
Country
Flag of CNCN / PRC
Related business
Manufacturer
SAST
Mission
Spacecraft
Bus & Motor
Unknown
Mass
Unknown
Launch date (UTC)
2022-11-11 (4 years ago)
Launch vehicle
Unknown
Launch site
Taiyaun Space Center, China (TSC)
Object type
Payload
Rocket body
Debris
Shape & HBR
Unknown shape, 0.1 m
Radar Cross Section
Medium (>0.1 m² and <1 m²)

Expand to show TLE details & history
Last TLE update: 1 day ago

TLE from 1 day ago
0 CZ-6A DEB
1 54266U 22151H   26235.07827414 -.00000077  00000-0 -47564-4 0  9991
2 54266  98.9863  97.1408 0409003 256.0251  99.5085 13.33379595183820
Epoch: 2026-08-23T01:52Z
TLE epoch observation values (Epoch: 2026-08-23T01:52:42.885Z)
Latitude
-0.00002°
Longitude
97.58262°
Altitude
1,199.687 km
Speed
7.224 km/s
True Right ascension
06h 28m 33s
True Declination
0° 00' 00"
Sunlit
Object was in daylight at epoch
Visualization orbit readout
Latitude
Unknown
Longitude
Unknown
Altitude
Unknown
Speed
Unknown
Apparent Right ascension
Unknown
Apparent Declination
Unknown
Sunlit
N/A
Visualization observer readout
Local Sidereal Time
20:47:03
Azimuth
Unknown
Elevation
Unknown
Doppler factor
Unknown
Orbital elements
Apogee altitude
1,438.464 km
Perigee altitude
824.185 km
Semi-major axis
7,509.461 km
Eccentricity
0.0409
Inclination
98.9863°
RAAN
97.1408°
Arg. of periapsis
256.0251°
True anomaly
104.08734°
Mean anomaly
99.5085°
Eccentric anomaly
101.80237°
Mean motion
3.33526 °/min
Orbital period
107.94 mins
BSTAR
-0.000047564
Loading maneuver chart data...
Computing Atmospheric mass density...
Loading historical data...
Loading historical data...
Loading historical data...
Loading historical data...
Loading historical data...
Loading historical data...
Loading historical data...

Documentation

Showing up to 5 results
|